Miscellaneous Local Product
Issued by NWS North Platte, NE

Home | Current Version | Previous Version | Text Only | Print | Product List | Glossary On
Versions: 1 2 3 4 5 6 7 8 9 10 11 12 13 14 15 16 17 18 19 20 21 22 23 24 25 26 27 28 29 30 31 32 33 34 35 36 37 38 39 40 41 42 43 44 45 46 47 48 49 50
000
AXUS43 KLBF 231110
MISLBF


WESTERN AND NORTH CENTRAL NEBRASKA HOURLY WEATHER ROUNDUP
NATIONAL WEATHER SERVICE NORTH PLATTE NE
500 AM CST TUE DEC 23 2014

***STATIONS NOT REPORTING VARIABLES SUCH AS SKY/WEATHER OR
PRESSURE ARE PROVIDED BY THE NEBRASKA DEPARTMENT OF
ROADS...RAWS...AND APRS NETWORKS...AND ARE NOT UNDER
NATIONAL WEATHER SERVICE QUALITY CONTROL***

...OBSERVATIONS IN AND NEAR THE EASTERN PANHANDLE OF NEBRASKA...

CITY           SKY/WX    TMP DP  RH WIND       PRES   REMARKS
PINE RIDGE     SNOW      24  20  84 N15G28    29.90R VSB 1/2 WCI  11
CHADRON        CLOUDY    27  24  89 CALM      29.92R FOG
ALLIANCE       CLOUDY    25  22  88 N18       29.84R FOG     WCI  11
SIDNEY         LGT SNOW  29  23  78 N40G52    29.81R WCI  11
WHITECLAY        N/A     24  20  85 N20         N/A  WCI   9
CRESCENT LAKE    N/A     25  22  88 N23G31      N/A  WCI  10
LISCO            N/A     32  21  64 W21         N/A  WCI  20
BIG SPRINGS      N/A     29  26  88 NW14        N/A  WCI  18
$$

...OBSERVATIONS IN NORTH CENTRAL NEBRASKA...

CITY           SKY/WX    TMP DP  RH WIND       PRES   REMARKS
VALENTINE      LGT SNOW  26  22  84 NW26G37   29.75R FOG     WCI  10
THEDFORD       FLURRIES  27  23  84 NW28G38   29.72R WCI  11
AINSWORTH      LGT SNOW  27  24  89 NW25G36   29.71R WCI  11
O`NEILL        LGT SNOW  32  32 100 NW17      29.63R WCI  21
BROKEN BOW     LGT SNOW  28  24  85 NW26G39   29.65R FOG     WCI  13
BROWNLEE         N/A     25  21  85 NW35        N/A  WCI   7
SPRINGVIEW       N/A     28  25  87 W15G35      N/A  WCI  16
BREWSTER         N/A     30  27  86 NW32        N/A  WCI  15
ROSE             N/A     30  30 100 SW21        N/A  WCI  17
SARGENT          N/A     28  26  94 NW9G20      N/A  WCI  19
COMSTOCK         N/A     33  30  90 NW20        N/A  WCI  21
CHAMBERS         N/A     30  29  94 N9G20       N/A  WCI  22
EWING            N/A     33  32  97 CALM        N/A
$$

...OBSERVATIONS IN SOUTHWEST NEBRASKA AND FAR NORTHEAST COLORADO...

CITY           SKY/WX    TMP DP  RH WIND       PRES   REMARKS
WRAY           LGT SNOW  31  28  89 NW32G40   29.80R WCI  16
HOLYOKE        CLOUDY    34  27  75 NW35G43   29.79R WCI  19
IMPERIAL       LGT SNOW  28  25  88 N25       29.78R FOG     WCI  13
OGALLALA       LGT SNOW  29  24  80 N37G46    29.77R WCI  12
NORTH PLATTE   FLURRIES  27  21  78 NW22G35   29.74R WCI  13
MCCOOK         LGT SNOW  29  24  82 NW28G37   29.74R WCI  14
LEXINGTON      LGT SNOW  30  26  83 NW29G35   29.69R WCI  15
PAXTON           N/A     28  25  88 NW18        N/A  WCI  15
BRADY            N/A     26  22  84 S3G14       N/A
GOTHENBURG       N/A     28  23  82 NW15        N/A  WCI  16
CALLAWAY         N/A     26  25  94 NW23        N/A  WCI  11
$$

...NORTH PLATTE AREA...

CITY           SKY/WX    TMP DP  RH WIND       PRES   REMARKS
AIRPORT        FLURRIES  27  21  78 NW22G35   29.74R WCI  13
DOWNTOWN         N/A     26  21  81 N12G20      N/A  WCI  16
$$

...SOME WEATHER OBSERVATIONS FROM AROUND THE REGION...

CITY           SKY/WX    TMP DP  RH WIND       PRES   REMARKS
DENVER         CLOUDY    28  17  63 NW20      29.91S WCI  15
LARAMIE        CLOUDY    17  12  80 NW25G32   29.94R WCI  -1
CHEYENNE       LGT SNOW  23  16  74 NW22G40   29.89R WCI   8
SCOTTSBLUFF    LGT SNOW  30  26  85 NW28G33   29.90R FOG     WCI  15
RAPID CITY     FOG       25  22  88 N33G44    29.92R VSB 1/2 WCI   7
PIERRE         LGT SNOW  31  29  92 N24G32    29.78R VSB 1   WCI  17
WINNER         LGT SNOW  31  28  89 NW23      29.74R FOG     WCI  18
SIOUX FALLS    CLOUDY    34  32  92 N13       29.61R WCI  25
OMAHA          DRIZZLE   35  33  92 W12       29.54R WCI  27
GRAND ISLAND   LGT SNOW  30  28  92 NW16      29.62R FOG     WCI  19
KANSAS CITY    CLEAR     35  32  88 W8        29.59S WCI  29
WICHITA        PTCLDY    38  27  64 NW17      29.69S WCI  28
HAYS           CLOUDY    34  19  55 NW16G28   29.72R WCI  23
LIBERAL        CLEAR     30  19  64 W12       29.85R WCI  21
GOODLAND       LGT SNOW  30  28  92 NW30G41   29.76R FOG     WCI  15
$$



USA.gov is the U.S. government's official web portal to all federal, state and local government web resources and services.